Time,TemperatureF,DewpointF,PressureIn,WindDirection,WindDirectionDegrees,WindSpeedMPH,WindSpeedGustMPH,Humidity,HourlyPrecipIn,Conditions,Clouds,dailyrainin,SoftwareType,DateUTC
2013-07-12 00:00:00,71.9,63.5,29.81,SE,142,1.0,7.0,75,0.00,,SKC,0.00,VWS V14.01,2013-07-12 05:00:00,
2013-07-12 00:03:00,71.9,63.5,29.81,SE,142,5.0,5.0,75,0.00,,SKC,0.00,VWS V14.01,2013-07-12 05:03:00,
2013-07-12 00:08:00,71.8,63.1,29.81,SE,142,4.0,9.0,74,0.00,,SKC,0.00,VWS V14.01,2013-07-12 05:08:00,
2013-07-12 00:13:00,71.8,63.1,29.81,SE,144,5.0,9.0,74,0.00,,SKC,0.00,VWS V14.01,2013-07-12 05:13:00,
2013-07-12 00:18:00,71.8,63.1,29.80,SE,143,5.0,9.0,74,0.00,,SKC,0.00,VWS V14.01,2013-07-12 05:18:00,
2013-07-12 00:23:00,71.8,63.1,29.80,SE,144,0.0,9.0,74,0.00,,SKC,0.00,VWS V14.01,2013-07-12 05:23:00,
2013-07-12 00:28:00,71.8,63.1,29.81,SE,144,0.0,9.0,74,0.00,,SKC,0.00,VWS V14.01,2013-07-12 05:28:00,
2013-07-12 00:30:00,72.5,63.8,29.81,SE,142,0.0,7.0,74,0.00,,SKC,0.00,VWS V14.01,2013-07-12 05:30:00,
2013-07-12 00:33:00,71.7,63.0,29.81,SE,144,0.0,6.0,74,0.00,,SKC,0.00,VWS V14.01,2013-07-12 05:33:00,
2013-07-12 00:38:00,71.7,63.0,29.81,SE,144,0.0,6.0,74,0.00,,SKC,0.00,VWS V14.01,2013-07-12 05:38:00,
2013-07-12 00:43:00,71.6,62.9,29.81,SE,145,0.0,8.0,74,0.00,,SKC,0.00,VWS V14.01,2013-07-12 05:43:00,
2013-07-12 00:48:00,71.5,62.8,29.81,SE,145,3.0,8.0,74,0.00,,SKC,0.00,VWS V14.01,2013-07-12 05:48:00,
2013-07-12 00:53:00,71.3,62.6,29.80,SE,145,2.0,8.0,74,0.00,,SKC,0.00,VWS V14.01,2013-07-12 05:53:00,
2013-07-12 00:58:00,71.3,62.6,29.80,SE,145,0.0,8.0,74,0.00,,SKC,0.00,VWS V14.01,2013-07-12 05:58:00,
2013-07-12 01:00:00,71.9,63.5,29.81,SE,142,1.0,7.0,75,0.00,,SKC,0.00,VWS V14.01,2013-07-12 06:00:00,
2013-07-12 01:04:00,71.3,62.2,29.80,SE,146,0.0,6.0,73,0.00,,SKC,0.00,VWS V14.01,2013-07-12 06:04:00,
2013-07-12 01:09:00,71.2,62.5,29.81,SE,146,0.0,6.0,74,0.00,,SKC,0.00,VWS V14.01,2013-07-12 06:09:00,
2013-07-12 01:14:00,71.2,62.5,29.80,SE,146,4.0,7.0,74,0.00,,SKC,0.00,VWS V14.01,2013-07-12 06:14:00,
2013-07-12 01:19:00,71.2,62.1,29.80,SE,146,4.0,7.0,73,0.00,,SKC,0.00,VWS V14.01,2013-07-12 06:19:00,
2013-07-12 01:24:00,71.2,62.9,29.80,SE,146,0.0,7.0,75,0.00,,SKC,0.00,VWS V14.01,2013-07-12 06:24:00,
2013-07-12 01:29:00,71.1,62.8,29.80,SE,146,5.0,7.0,75,0.00,,SKC,0.00,VWS V14.01,2013-07-12 06:29:00,
2013-07-12 01:30:00,71.8,63.1,29.81,SE,144,5.0,9.0,74,0.00,,SKC,0.00,VWS V14.01,2013-07-12 06:30:00,
2013-07-12 01:34:00,71.0,61.9,29.80,SE,145,0.0,6.0,73,0.00,,SKC,0.00,VWS V14.01,2013-07-12 06:34:00,
2013-07-12 01:39:00,71.0,61.9,29.80,SSE,148,2.0,6.0,73,0.00,,SKC,0.00,VWS V14.01,2013-07-12 06:39:00,
2013-07-12 01:44:00,70.9,62.2,29.80,SSE,148,3.0,6.0,74,0.00,,SKC,0.00,VWS V14.01,2013-07-12 06:44:00,
2013-07-12 01:49:00,70.9,62.2,29.80,SSE,148,0.0,6.0,74,0.00,,SKC,0.00,VWS V14.01,2013-07-12 06:49:00,
2013-07-12 01:54:00,70.8,62.1,29.80,SSE,148,0.0,6.0,74,0.00,,SKC,0.00,VWS V14.01,2013-07-12 06:54:00,
2013-07-12 01:59:00,70.6,61.9,29.80,SSE,148,0.0,6.0,74,0.00,,SKC,0.00,VWS V14.01,2013-07-12 06:59:00,
2013-07-12 02:00:00,71.3,62.2,29.81,SE,146,1.0,8.0,73,0.00,,SKC,0.00,VWS V14.01,2013-07-12 07:00:00,
2013-07-12 02:04:00,70.6,61.9,29.80,SSE,148,0.0,2.0,74,0.00,,SKC,0.00,VWS V14.01,2013-07-12 07:04:00,
2013-07-12 02:09:00,70.5,61.8,29.80,SSE,148,0.0,3.0,74,0.00,,SKC,0.00,VWS V14.01,2013-07-12 07:09:00,
2013-07-12 02:14:00,70.5,61.4,29.80,SSE,148,0.0,3.0,73,0.00,,SKC,0.00,VWS V14.01,2013-07-12 07:14:00,
2013-07-12 02:19:00,70.5,61.0,29.80,SSE,147,1.0,5.0,72,0.00,,SKC,0.00,VWS V14.01,2013-07-12 07:19:00,
2013-07-12 02:24:00,70.6,61.5,29.80,SSE,147,0.0,6.0,73,0.00,,SKC,0.00,VWS V14.01,2013-07-12 07:24:00,
2013-07-12 02:29:00,70.6,61.5,29.80,SSE,147,0.0,6.0,73,0.00,,SKC,0.00,VWS V14.01,2013-07-12 07:29:00,
2013-07-12 02:30:00,71.1,62.0,29.80,SE,146,0.0,7.0,73,0.00,,SKC,0.00,VWS V14.01,2013-07-12 07:30:00,
2013-07-12 02:34:00,70.5,61.4,29.80,SSE,147,0.0,5.0,73,0.00,,SKC,0.00,VWS V14.01,2013-07-12 07:34:00,
2013-07-12 02:39:00,70.5,61.0,29.80,SE,146,0.0,7.0,72,0.00,,SKC,0.00,VWS V14.01,2013-07-12 07:39:00,
2013-07-12 02:44:00,70.5,61.4,29.80,SE,146,0.0,7.0,73,0.00,,SKC,0.00,VWS V14.01,2013-07-12 07:44:00,
2013-07-12 02:49:00,70.5,61.4,29.80,SE,145,1.0,7.0,73,0.00,,SKC,0.00,VWS V14.01,2013-07-12 07:49:00,
2013-07-12 02:54:00,70.4,61.0,29.80,SE,145,0.0,7.0,72,0.00,,SKC,0.00,VWS V14.01,2013-07-12 07:54:00,
2013-07-12 02:59:00,70.4,61.0,29.80,SE,145,0.0,7.0,72,0.00,,SKC,0.00,VWS V14.01,2013-07-12 07:59:00,
2013-07-12 03:00:00,70.6,61.9,29.80,SSE,148,0.0,6.0,74,0.00,,SKC,0.00,VWS V14.01,2013-07-12 08:00:00,
2013-07-12 03:04:00,70.4,61.0,29.80,SE,145,0.0,4.0,72,0.00,,SKC,0.00,VWS V14.01,2013-07-12 08:04:00,
2013-07-12 03:09:00,70.3,60.9,29.80,SE,145,0.0,4.0,72,0.00,,SKC,0.00,VWS V14.01,2013-07-12 08:09:00,
2013-07-12 03:14:00,70.2,60.8,29.80,SE,145,1.0,5.0,72,0.00,,SKC,0.00,VWS V14.01,2013-07-12 08:14:00,
2013-07-12 03:19:00,70.2,60.8,29.80,SE,145,0.0,7.0,72,0.00,,SKC,0.00,VWS V14.01,2013-07-12 08:19:00,
2013-07-12 03:24:00,70.1,60.7,29.80,SE,145,0.0,7.0,72,0.00,,SKC,0.00,VWS V14.01,2013-07-12 08:24:00,
2013-07-12 03:29:00,70.0,61.0,29.80,SE,144,0.0,7.0,73,0.00,,SKC,0.00,VWS V14.01,2013-07-12 08:29:00,
2013-07-12 03:30:00,70.6,61.5,29.80,SSE,147,0.0,6.0,73,0.00,,SKC,0.00,VWS V14.01,2013-07-12 08:30:00,
2013-07-12 03:34:00,69.9,60.9,29.81,SE,144,0.0,2.0,73,0.00,,SKC,0.00,VWS V14.01,2013-07-12 08:34:00,
2013-07-12 03:39:00,69.8,60.8,29.81,SE,144,0.0,2.0,73,0.00,,SKC,0.00,VWS V14.01,2013-07-12 08:39:00,
2013-07-12 03:45:00,69.7,61.0,29.81,SE,144,0.0,2.0,74,0.00,,SKC,0.00,VWS V14.01,2013-07-12 08:45:00,
2013-07-12 03:50:00,69.6,61.0,29.81,SE,144,0.0,2.0,74,0.00,,SKC,0.00,VWS V14.01,2013-07-12 08:50:00,
2013-07-12 03:55:00,69.5,60.9,29.81,SE,144,0.0,2.0,74,0.00,,SKC,0.00,VWS V14.01,2013-07-12 08:55:00,
2013-07-12 04:00:00,69.4,60.8,29.81,SE,144,0.0,2.0,74,0.00,,SKC,0.00,VWS V14.01,2013-07-12 09:00:00,
2013-07-12 04:05:00,69.3,61.0,29.81,SE,144,0.0,0.0,75,0.00,,SKC,0.00,VWS V14.01,2013-07-12 09:05:00,
2013-07-12 04:10:00,69.2,61.0,29.81,SE,144,0.0,0.0,75,0.00,,SKC,0.00,VWS V14.01,2013-07-12 09:10:00,
2013-07-12 04:15:00,69.0,60.8,29.81,SE,144,0.0,0.0,75,0.00,,SKC,0.00,VWS V14.01,2013-07-12 09:15:00,
2013-07-12 04:20:00,68.9,61.0,29.81,SE,144,0.0,0.0,76,0.00,,SKC,0.00,VWS V14.01,2013-07-12 09:20:00,
2013-07-12 04:25:00,68.8,60.9,29.81,SE,144,0.0,0.0,76,0.00,,SKC,0.00,VWS V14.01,2013-07-12 09:25:00,
2013-07-12 04:30:00,68.5,60.6,29.82,SE,144,0.0,0.0,76,0.00,,SKC,0.00,VWS V14.01,2013-07-12 09:30:00,
2013-07-12 04:35:00,68.3,60.5,29.82,SE,144,0.0,0.0,76,0.00,,SKC,0.00,VWS V14.01,2013-07-12 09:35:00,
2013-07-12 04:40:00,68.2,60.3,29.82,SE,144,0.0,6.0,76,0.00,,SKC,0.00,VWS V14.01,2013-07-12 09:40:00,
2013-07-12 04:45:00,68.3,60.5,29.82,SE,144,0.0,6.0,76,0.00,,SKC,0.00,VWS V14.01,2013-07-12 09:45:00,
2013-07-12 04:50:00,68.3,60.5,29.82,SE,144,0.0,6.0,76,0.00,,SKC,0.00,VWS V14.01,2013-07-12 09:50:00,
2013-07-12 04:55:00,68.3,60.5,29.82,SE,144,0.0,6.0,76,0.00,,SKC,0.00,VWS V14.01,2013-07-12 09:55:00,
2013-07-12 05:00:00,68.3,60.5,29.82,SE,144,0.0,6.0,76,0.00,,SKC,0.00,VWS V14.01,2013-07-12 10:00:00,
2013-07-12 05:05:00,68.4,60.2,29.82,SE,144,0.0,7.0,75,0.00,,SKC,0.00,VWS V14.01,2013-07-12 10:05:00,
2013-07-12 05:10:00,68.5,60.6,29.82,SE,144,0.0,7.0,76,0.00,,SKC,0.00,VWS V14.01,2013-07-12 10:10:00,
2013-07-12 05:15:00,68.5,60.6,29.82,SE,144,1.0,7.0,76,0.00,,SKC,0.00,VWS V14.01,2013-07-12 10:15:00,
2013-07-12 05:20:00,68.5,60.3,29.82,SE,144,1.0,7.0,75,0.00,,SKC,0.00,VWS V14.01,2013-07-12 10:20:00,
2013-07-12 05:25:00,68.5,60.6,29.82,SE,144,3.0,8.0,76,0.00,,SKC,0.00,VWS V14.01,2013-07-12 10:25:00,
2013-07-12 05:30:00,68.6,60.4,29.82,SE,143,2.0,9.0,75,0.00,,SKC,0.00,VWS V14.01,2013-07-12 10:30:00,
2013-07-12 05:35:00,68.6,60.7,29.82,SE,142,0.0,7.0,76,0.00,,SKC,0.00,VWS V14.01,2013-07-12 10:35:00,
2013-07-12 05:40:00,68.6,60.4,29.82,SE,142,0.0,7.0,75,0.00,,SKC,0.00,VWS V14.01,2013-07-12 10:40:00,
2013-07-12 05:45:00,68.6,60.7,29.82,SE,142,0.0,7.0,76,0.00,,SKC,0.00,VWS V14.01,2013-07-12 10:45:00,
2013-07-12 05:50:00,68.5,60.3,29.82,SE,141,0.0,7.0,75,0.00,,SKC,0.00,VWS V14.01,2013-07-12 10:50:00,
2013-07-12 05:55:00,68.5,60.3,29.82,SE,142,0.0,7.0,75,0.00,,SKC,0.00,VWS V14.01,2013-07-12 10:55:00,
2013-07-12 06:00:00,68.6,60.7,29.83,SE,141,0.0,0.0,76,0.00,,SKC,0.00,VWS V14.01,2013-07-12 11:00:00,
2013-07-12 06:05:00,68.6,60.4,29.83,SE,140,0.0,7.0,75,0.00,,SKC,0.00,VWS V14.01,2013-07-12 11:05:00,
2013-07-12 06:10:00,68.6,60.7,29.83,SE,140,0.0,7.0,76,0.00,,SKC,0.00,VWS V14.01,2013-07-12 11:10:00,
2013-07-12 06:16:00,68.6,60.7,29.83,SE,140,0.0,7.0,76,0.00,,SKC,0.00,VWS V14.01,2013-07-12 11:16:00,
2013-07-12 06:21:00,68.6,61.1,29.82,SE,140,0.0,7.0,77,0.00,,SKC,0.00,VWS V14.01,2013-07-12 11:21:00,
2013-07-12 06:26:00,68.7,60.8,29.83,SE,140,0.0,8.0,76,0.00,,SKC,0.00,VWS V14.01,2013-07-12 11:26:00,
2013-07-12 06:30:00,68.6,60.4,29.82,SE,143,0.0,9.0,75,0.00,,SKC,0.00,VWS V14.01,2013-07-12 11:30:00,
2013-07-12 06:31:00,68.8,61.3,29.82,SE,139,1.0,1.0,77,0.00,,SKC,0.00,VWS V14.01,2013-07-12 11:31:00,
2013-07-12 06:36:00,68.9,61.0,29.82,SE,138,0.0,8.0,76,0.00,,SKC,0.00,VWS V14.01,2013-07-12 11:36:00,
2013-07-12 06:41:00,69.1,61.2,29.83,SE,138,0.0,8.0,76,0.00,,SKC,0.00,VWS V14.01,2013-07-12 11:41:00,
2013-07-12 06:46:00,69.2,61.0,29.83,SE,138,0.0,9.0,75,0.00,,SKC,0.00,VWS V14.01,2013-07-12 11:46:00,
2013-07-12 06:51:00,69.5,61.6,29.83,SE,138,1.0,9.0,76,0.00,,SKC,0.00,VWS V14.01,2013-07-12 11:51:00,
2013-07-12 06:56:00,69.7,61.8,29.83,SE,140,6.0,9.0,76,0.00,,SKC,0.00,VWS V14.01,2013-07-12 11:56:00,
2013-07-12 07:00:00,68.6,60.7,29.83,SE,141,0.0,10.0,76,0.00,,SKC,0.00,VWS V14.01,2013-07-12 12:00:00,
2013-07-12 07:01:00,70.0,62.1,29.83,SE,140,4.0,6.0,76,0.00,,SKC,0.00,VWS V14.01,2013-07-12 12:01:00,
2013-07-12 07:06:00,70.4,62.1,29.83,SE,140,4.0,6.0,75,0.00,,SKC,0.00,VWS V14.01,2013-07-12 12:06:00,
2013-07-12 07:11:00,70.9,62.2,29.83,SE,140,1.0,8.0,74,0.00,,SKC,0.00,VWS V14.01,2013-07-12 12:11:00,
2013-07-12 07:16:00,71.3,62.6,29.83,SE,142,4.0,8.0,74,0.00,,SKC,0.00,VWS V14.01,2013-07-12 12:16:00,
2013-07-12 07:21:00,71.4,62.7,29.83,SE,143,0.0,8.0,74,0.00,,SKC,0.00,VWS V14.01,2013-07-12 12:21:00,
2013-07-12 07:26:00,71.8,63.1,29.83,SE,137,0.0,8.0,74,0.00,,SKC,0.00,VWS V14.01,2013-07-12 12:26:00,
2013-07-12 07:30:00,68.8,61.3,29.82,SE,139,1.0,8.0,77,0.00,,SKC,0.00,VWS V14.01,2013-07-12 12:30:00,
2013-07-12 07:31:00,72.1,63.0,29.84,SE,137,3.0,5.0,73,0.00,,SKC,0.00,VWS V14.01,2013-07-12 12:31:00,
2013-07-12 07:36:00,72.4,62.9,29.84,SE,144,5.0,8.0,72,0.00,,SKC,0.00,VWS V14.01,2013-07-12 12:36:00,
2013-07-12 07:41:00,72.7,63.5,29.84,SE,144,5.0,8.0,73,0.00,,SKC,0.00,VWS V14.01,2013-07-12 12:41:00,
2013-07-12 07:46:00,73.0,63.5,29.84,SE,143,5.0,8.0,72,0.00,,SKC,0.00,VWS V14.01,2013-07-12 12:46:00,
2013-07-12 07:51:00,73.2,63.2,29.84,SE,146,0.0,8.0,71,0.00,,SKC,0.00,VWS V14.01,2013-07-12 12:51:00,
2013-07-12 07:56:00,73.4,63.8,29.84,SE,144,1.0,8.0,72,0.00,,SKC,0.00,VWS V14.01,2013-07-12 12:56:00,
2013-07-12 08:00:00,70.0,62.1,29.83,SE,140,0.0,9.0,76,0.00,,SKC,0.00,VWS V14.01,2013-07-12 13:00:00,
2013-07-12 08:01:00,73.6,63.6,29.84,SE,145,4.0,8.0,71,0.00,,SKC,0.00,VWS V14.01,2013-07-12 13:01:00,
2013-07-12 08:06:00,73.7,63.7,29.84,SE,144,5.0,8.0,71,0.00,,SKC,0.00,VWS V14.01,2013-07-12 13:06:00,
2013-07-12 08:11:00,73.8,63.8,29.84,SE,143,0.0,8.0,71,0.00,,SKC,0.00,VWS V14.01,2013-07-12 13:11:00,
2013-07-12 08:16:00,74.0,64.0,29.84,SE,142,4.0,8.0,71,0.00,,SKC,0.00,VWS V14.01,2013-07-12 13:16:00,
2013-07-12 08:21:00,74.2,63.8,29.84,SE,144,3.0,8.0,70,0.00,,SKC,0.00,VWS V14.01,2013-07-12 13:21:00,
2013-07-12 08:26:00,74.2,63.8,29.84,SE,146,0.0,8.0,70,0.00,,SKC,0.00,VWS V14.01,2013-07-12 13:26:00,
2013-07-12 08:30:00,72.1,63.0,29.83,SE,137,5.0,8.0,73,0.00,,SKC,0.00,VWS V14.01,2013-07-12 13:30:00,
2013-07-12 08:31:00,74.1,64.5,29.83,SE,146,1.0,6.0,72,0.00,,SKC,0.00,VWS V14.01,2013-07-12 13:31:00,
2013-07-12 08:37:00,74.1,64.1,29.83,SE,145,0.0,6.0,71,0.00,,SKC,0.00,VWS V14.01,2013-07-12 13:37:00,
2013-07-12 08:42:00,74.0,64.4,29.83,SE,145,0.0,6.0,72,0.00,,SKC,0.00,VWS V14.01,2013-07-12 13:42:00,
2013-07-12 08:47:00,74.1,64.5,29.83,SE,143,0.0,7.0,72,0.00,,SKC,0.00,VWS V14.01,2013-07-12 13:47:00,
2013-07-12 08:52:00,73.9,64.3,29.83,SE,143,0.0,8.0,72,0.00,,SKC,0.00,VWS V14.01,2013-07-12 13:52:00,
2013-07-12 08:57:00,73.9,65.1,29.83,SE,144,0.0,8.0,74,0.00,,SKC,0.00,VWS V14.01,2013-07-12 13:57:00,
2013-07-12 09:00:00,73.6,64.0,29.84,SE,145,6.0,8.0,72,0.00,,SKC,0.00,VWS V14.01,2013-07-12 14:00:00,
2013-07-12 09:02:00,73.9,65.1,29.83,SSE,153,0.0,6.0,74,0.00,,SKC,0.00,VWS V14.01,2013-07-12 14:02:00,
2013-07-12 09:07:00,74.0,64.4,29.83,SE,146,6.0,8.0,72,0.00,,SKC,0.00,VWS V14.01,2013-07-12 14:07:00,
2013-07-12 09:12:00,74.1,64.9,29.83,SE,142,0.0,10.0,73,0.00,,SKC,0.00,VWS V14.01,2013-07-12 14:12:00,
2013-07-12 09:17:00,74.3,64.7,29.83,SE,146,6.0,10.0,72,0.00,,SKC,0.00,VWS V14.01,2013-07-12 14:17:00,
2013-07-12 09:22:00,74.4,65.2,29.83,SE,145,0.0,10.0,73,0.00,,SKC,0.00,VWS V14.01,2013-07-12 14:22:00,
2013-07-12 09:27:00,74.5,65.3,29.83,SE,145,0.0,10.0,73,0.00,,SKC,0.00,VWS V14.01,2013-07-12 14:27:00,
2013-07-12 09:30:00,74.1,64.5,29.83,SE,146,4.0,8.0,72,0.00,,SKC,0.00,VWS V14.01,2013-07-12 14:30:00,
2013-07-12 09:32:00,74.7,65.5,29.83,SE,144,2.0,8.0,73,0.00,,SKC,0.00,VWS V14.01,2013-07-12 14:32:00,
2013-07-12 09:37:00,74.9,66.1,29.82,SE,143,5.0,8.0,74,0.00,,SKC,0.00,VWS V14.01,2013-07-12 14:37:00,
2013-07-12 09:42:00,75.0,64.2,29.82,SE,138,0.0,9.0,69,0.00,,SKC,0.00,VWS V14.01,2013-07-12 14:42:00,
2013-07-12 09:47:00,75.2,65.2,29.82,SE,134,1.0,9.0,71,0.00,,SKC,0.00,VWS V14.01,2013-07-12 14:47:00,
2013-07-12 09:52:00,75.4,65.8,29.82,SSE,152,3.0,9.0,72,0.00,,SKC,0.00,VWS V14.01,2013-07-12 14:52:00,
2013-07-12 09:57:00,75.7,65.6,29.82,SSE,149,0.0,9.0,71,0.00,,SKC,0.00,VWS V14.01,2013-07-12 14:57:00,
2013-07-12 10:00:00,73.9,64.7,29.83,SSE,158,2.0,8.0,73,0.00,,SKC,0.00,VWS V14.01,2013-07-12 15:00:00,
2013-07-12 10:02:00,76.1,65.6,29.82,SE,142,0.0,4.0,70,0.00,,SKC,0.00,VWS V14.01,2013-07-12 15:02:00,
2013-07-12 10:07:00,76.4,65.1,29.82,SE,134,0.0,9.0,68,0.00,,SKC,0.00,VWS V14.01,2013-07-12 15:07:00,
2013-07-12 10:12:00,76.6,66.1,29.82,SE,134,0.0,9.0,70,0.00,,SKC,0.00,VWS V14.01,2013-07-12 15:12:00,
2013-07-12 10:17:00,76.9,65.5,29.81,SE,136,1.0,9.0,68,0.00,,SKC,0.00,VWS V14.01,2013-07-12 15:17:00,
2013-07-12 10:22:00,77.1,66.2,29.81,SE,135,1.0,9.0,69,0.00,,SKC,0.00,VWS V14.01,2013-07-12 15:22:00,
2013-07-12 10:27:00,77.1,65.3,29.81,SE,131,4.0,11.0,67,0.00,,SKC,0.00,VWS V14.01,2013-07-12 15:27:00,
2013-07-12 10:30:00,74.6,65.0,29.83,SE,142,5.0,10.0,72,0.00,,SKC,0.00,VWS V14.01,2013-07-12 15:30:00,
2013-07-12 10:32:00,77.2,65.8,29.81,SE,134,0.0,6.0,68,0.00,,SKC,0.00,VWS V14.01,2013-07-12 15:32:00,
2013-07-12 10:37:00,77.2,65.4,29.80,SE,128,10.0,12.0,67,0.00,,SKC,0.00,VWS V14.01,2013-07-12 15:37:00,
2013-07-12 10:42:00,77.2,66.7,29.80,SE,136,9.0,12.0,70,0.00,,SKC,0.00,VWS V14.01,2013-07-12 15:42:00,
2013-07-12 10:47:00,77.3,65.1,29.80,SE,133,7.0,12.0,66,0.00,,SKC,0.00,VWS V14.01,2013-07-12 15:47:00,
2013-07-12 10:52:00,77.4,65.2,29.81,SE,130,11.0,14.0,66,0.00,,SKC,0.00,VWS V14.01,2013-07-12 15:52:00,
2013-07-12 10:57:00,77.6,65.3,29.81,SE,127,0.0,14.0,66,0.00,,SKC,0.00,VWS V14.01,2013-07-12 15:57:00,
2013-07-12 11:00:00,76.0,65.9,29.82,SE,142,0.0,9.0,71,0.00,,SKC,0.00,VWS V14.01,2013-07-12 16:00:00,
2013-07-12 11:02:00,78.2,66.8,29.80,SE,129,1.0,10.0,68,0.00,,SKC,0.00,VWS V14.01,2013-07-12 16:02:00,
2013-07-12 11:07:00,78.5,67.1,29.81,SE,128,0.0,10.0,68,0.00,,SKC,0.00,VWS V14.01,2013-07-12 16:07:00,
2013-07-12 11:13:00,78.7,66.8,29.80,SE,130,5.0,11.0,67,0.00,,SKC,0.00,VWS V14.01,2013-07-12 16:13:00,
2013-07-12 11:18:00,78.9,65.7,29.80,SE,142,6.0,14.0,64,0.00,,SKC,0.00,VWS V14.01,2013-07-12 16:18:00,
2013-07-12 11:23:00,79.0,66.2,29.80,SE,133,0.0,14.0,65,0.00,,SKC,0.00,VWS V14.01,2013-07-12 16:23:00,
2013-07-12 11:28:00,79.2,66.9,29.80,SE,134,3.0,14.0,66,0.00,,SKC,0.00,VWS V14.01,2013-07-12 16:28:00,
2013-07-12 11:30:00,77.2,65.0,29.81,SE,135,4.0,11.0,66,0.00,,SKC,0.00,VWS V14.01,2013-07-12 16:30:00,
2013-07-12 11:33:00,79.5,65.8,29.79,SE,140,8.0,12.0,63,0.00,,SKC,0.00,VWS V14.01,2013-07-12 16:33:00,
2013-07-12 11:38:00,79.9,67.1,29.79,SE,138,2.0,12.0,65,0.00,,SKC,0.00,VWS V14.01,2013-07-12 16:38:00,
2013-07-12 11:43:00,80.2,67.4,29.79,SE,143,0.0,12.0,65,0.00,,SKC,0.00,VWS V14.01,2013-07-12 16:43:00,
2013-07-12 11:48:00,80.5,66.8,29.79,SE,136,4.0,12.0,63,0.00,,SKC,0.00,VWS V14.01,2013-07-12 16:48:00,
2013-07-12 11:53:00,80.8,66.6,29.79,SE,132,2.0,12.0,62,0.00,,SKC,0.00,VWS V14.01,2013-07-12 16:53:00,
2013-07-12 12:00:00,81.1,66.4,29.79,SE,130,12.0,13.0,61,0.00,,SKC,0.00,VWS V14.01,2013-07-12 17:00:00,
2013-07-12 12:05:00,81.2,67.4,29.79,ESE,123,2.0,13.0,63,0.00,,SKC,0.00,VWS V14.01,2013-07-12 17:05:00,
2013-07-12 12:12:00,81.5,67.2,29.79,SE,144,0.0,13.0,62,0.00,,SKC,0.00,VWS V14.01,2013-07-12 17:12:00,
2013-07-12 12:19:00,82.2,68.8,29.78,SSE,159,8.0,13.0,64,0.00,,SKC,0.00,VWS V14.01,2013-07-12 17:19:00,
2013-07-12 12:24:00,82.6,66.8,29.78,SE,129,3.0,13.0,59,0.00,,SKC,0.00,VWS V14.01,2013-07-12 17:24:00,
2013-07-12 12:29:00,82.7,66.9,29.78,SSE,148,6.0,13.0,59,0.00,,SKC,0.00,VWS V14.01,2013-07-12 17:29:00,
2013-07-12 12:30:00,79.4,66.6,29.79,ESE,117,7.0,14.0,65,0.00,,SKC,0.00,VWS V14.01,2013-07-12 17:30:00,
2013-07-12 12:35:00,82.7,67.4,29.78,SE,136,7.0,14.0,60,0.00,,SKC,0.00,VWS V14.01,2013-07-12 17:35:00,
2013-07-12 12:40:00,82.9,67.6,29.78,SE,145,11.0,14.0,60,0.00,,SKC,0.00,VWS V14.01,2013-07-12 17:40:00,
2013-07-12 12:47:00,82.9,66.6,29.78,SE,125,1.0,14.0,58,0.00,,SKC,0.00,VWS V14.01,2013-07-12 17:47:00,
2013-07-12 12:52:00,83.2,66.9,29.78,SE,135,2.0,14.0,58,0.00,,SKC,0.00,VWS V14.01,2013-07-12 17:52:00,
2013-07-12 12:57:00,83.6,67.8,29.77,SE,138,7.0,14.0,59,0.00,,SKC,0.00,VWS V14.01,2013-07-12 17:57:00,
2013-07-12 13:00:00,81.1,66.4,29.79,SSE,149,6.0,13.0,61,0.00,,SKC,0.00,VWS V14.01,2013-07-12 18:00:00,
2013-07-12 13:02:00,84.0,67.7,29.77,SE,136,2.0,9.0,58,0.00,,SKC,0.00,VWS V14.01,2013-07-12 18:02:00,
2013-07-12 13:09:00,84.5,67.1,29.77,SE,129,11.0,14.0,56,0.00,,SKC,0.00,VWS V14.01,2013-07-12 18:09:00,
2013-07-12 13:16:00,84.0,67.7,29.77,SE,134,3.0,14.0,58,0.00,,SKC,0.00,VWS V14.01,2013-07-12 18:16:00,
2013-07-12 13:22:00,84.1,67.7,29.77,SE,134,10.0,14.0,58,0.00,,SKC,0.00,VWS V14.01,2013-07-12 18:22:00,
2013-07-12 13:27:00,84.2,67.3,29.77,SE,128,3.0,14.0,57,0.00,,SKC,0.00,VWS V14.01,2013-07-12 18:27:00,
2013-07-12 13:30:00,82.6,66.8,29.78,SE,131,7.0,13.0,59,0.00,,SKC,0.00,VWS V14.01,2013-07-12 18:30:00,
2013-07-12 13:32:00,84.2,66.8,29.77,SE,146,10.0,10.0,56,0.00,,SKC,0.00,VWS V14.01,2013-07-12 18:32:00,
2013-07-12 13:37:00,84.3,66.9,29.77,SE,128,4.0,16.0,56,0.00,,SKC,0.00,VWS V14.01,2013-07-12 18:37:00,
2013-07-12 13:42:00,84.3,67.4,29.77,SE,141,9.0,16.0,57,0.00,,SKC,0.00,VWS V14.01,2013-07-12 18:42:00,
2013-07-12 13:49:00,84.4,67.5,29.76,SE,142,1.0,16.0,57,0.00,,SKC,0.00,VWS V14.01,2013-07-12 18:49:00,
2013-07-12 13:56:00,84.8,67.9,29.76,SE,144,1.0,18.0,57,0.00,,SKC,0.00,VWS V14.01,2013-07-12 18:56:00,
2013-07-12 14:00:00,83.9,67.6,29.78,SE,136,2.0,14.0,58,0.00,,SKC,0.00,VWS V14.01,2013-07-12 19:00:00,
2013-07-12 14:03:00,85.7,69.2,29.76,ESE,116,1.0,9.0,58,0.00,,SKC,0.00,VWS V14.01,2013-07-12 19:03:00,
2013-07-12 14:08:00,85.9,67.9,29.76,SSE,153,5.0,13.0,55,0.00,,SKC,0.00,VWS V14.01,2013-07-12 19:08:00,
2013-07-12 14:13:00,86.2,69.2,29.76,SE,124,0.0,13.0,57,0.00,,SKC,0.00,VWS V14.01,2013-07-12 19:13:00,
2013-07-12 14:19:00,86.3,67.2,29.76,SE,135,6.0,16.0,53,0.00,,SKC,0.00,VWS V14.01,2013-07-12 19:19:00,
2013-07-12 14:24:00,86.1,67.5,29.76,SE,126,0.0,16.0,54,0.00,,SKC,0.00,VWS V14.01,2013-07-12 19:24:00,
2013-07-12 14:29:00,85.9,67.3,29.76,SSE,156,11.0,16.0,54,0.00,,SKC,0.00,VWS V14.01,2013-07-12 19:29:00,
2013-07-12 14:30:00,84.2,67.3,29.77,SE,134,5.0,14.0,57,0.00,,SKC,0.00,VWS V14.01,2013-07-12 19:30:00,
2013-07-12 14:35:00,85.7,68.7,29.76,SSE,148,0.0,13.0,57,0.00,,SKC,0.00,VWS V14.01,2013-07-12 19:35:00,
2013-07-12 14:40:00,85.9,67.3,29.76,SE,131,6.0,18.0,54,0.00,,SKC,0.00,VWS V14.01,2013-07-12 19:40:00,
2013-07-12 14:45:00,85.9,67.3,29.76,SE,130,9.0,18.0,54,0.00,,SKC,0.00,VWS V14.01,2013-07-12 19:45:00,
2013-07-12 14:50:00,85.6,68.6,29.76,SE,134,1.0,18.0,57,0.00,,SKC,0.00,VWS V14.01,2013-07-12 19:50:00,
2013-07-12 14:56:00,85.3,67.8,29.76,ESE,111,0.0,18.0,56,0.00,,SKC,0.00,VWS V14.01,2013-07-12 19:56:00,
2013-07-12 15:00:00,85.3,68.4,29.76,SE,129,0.0,18.0,57,0.00,,SKC,0.00,VWS V14.01,2013-07-12 20:00:00,
2013-07-12 15:02:00,85.4,68.4,29.76,SE,140,6.0,7.0,57,0.00,,SKC,0.00,VWS V14.01,2013-07-12 20:02:00,
2013-07-12 15:08:00,85.3,69.4,29.75,NNE,17,1.0,12.0,59,0.00,,SKC,0.00,VWS V14.01,2013-07-12 20:08:00,
2013-07-12 15:14:00,85.0,69.1,29.75,SE,132,0.0,12.0,59,0.00,,SKC,0.00,VWS V14.01,2013-07-12 20:14:00,
2013-07-12 15:19:00,84.7,69.3,29.75,East,101,0.0,14.0,60,0.00,,SKC,0.00,VWS V14.01,2013-07-12 20:19:00,
2013-07-12 15:24:00,84.6,67.7,29.75,ESE,121,8.0,14.0,57,0.00,,SKC,0.00,VWS V14.01,2013-07-12 20:24:00,
2013-07-12 15:29:00,84.5,67.1,29.75,SSE,151,14.0,18.0,56,0.00,,SKC,0.00,VWS V14.01,2013-07-12 20:29:00,
2013-07-12 15:30:00,85.9,66.8,29.76,SE,132,1.0,16.0,53,0.00,,SKC,0.00,VWS V14.01,2013-07-12 20:30:00,
2013-07-12 15:36:00,84.4,68.0,29.75,ESE,113,1.0,10.0,58,0.00,,SKC,0.00,VWS V14.01,2013-07-12 20:36:00,
2013-07-12 15:42:00,84.4,67.5,29.75,SSE,153,8.0,10.0,57,0.00,,SKC,0.00,VWS V14.01,2013-07-12 20:42:00,
2013-07-12 15:47:00,84.4,68.0,29.75,ESE,120,1.0,10.0,58,0.00,,SKC,0.00,VWS V14.01,2013-07-12 20:47:00,
2013-07-12 15:52:00,84.4,68.5,29.75,SE,135,2.0,10.0,59,0.00,,SKC,0.00,VWS V14.01,2013-07-12 20:52:00,
2013-07-12 15:57:00,84.5,69.6,29.75,SE,140,0.0,10.0,61,0.00,,SKC,0.00,VWS V14.01,2013-07-12 20:57:00,
2013-07-12 16:00:00,85.4,69.9,29.75,SE,134,0.0,18.0,60,0.00,,SKC,0.00,VWS V14.01,2013-07-12 21:00:00,
2013-07-12 16:02:00,84.5,68.1,29.75,SSE,155,5.0,12.0,58,0.00,,SKC,0.00,VWS V14.01,2013-07-12 21:02:00,
2013-07-12 16:08:00,84.3,67.4,29.75,SE,138,4.0,15.0,57,0.00,,SKC,0.00,VWS V14.01,2013-07-12 21:08:00,
2013-07-12 16:13:00,84.2,67.8,29.74,SSE,152,8.0,16.0,58,0.00,,SKC,0.00,VWS V14.01,2013-07-12 21:13:00,
2013-07-12 16:18:00,84.2,67.8,29.74,SE,124,11.0,16.0,58,0.00,,SKC,0.00,VWS V14.01,2013-07-12 21:18:00,
2013-07-12 16:23:00,84.1,68.2,29.74,SSE,147,3.0,20.0,59,0.00,,SKC,0.00,VWS V14.01,2013-07-12 21:23:00,
2013-07-12 16:29:00,84.0,68.1,29.74,SE,130,7.0,20.0,59,0.00,,SKC,0.00,VWS V14.01,2013-07-12 21:29:00,
2013-07-12 16:30:00,84.5,66.6,29.75,SE,125,8.0,19.0,55,0.00,,SKC,0.00,VWS V14.01,2013-07-12 21:30:00,
2013-07-12 16:34:00,84.1,68.7,29.74,SSE,155,0.0,11.0,60,0.00,,SKC,0.00,VWS V14.01,2013-07-12 21:34:00,
2013-07-12 16:39:00,84.1,68.2,29.74,SE,137,4.0,13.0,59,0.00,,SKC,0.00,VWS V14.01,2013-07-12 21:39:00,
2013-07-12 16:44:00,84.0,68.1,29.74,SE,132,5.0,13.0,59,0.00,,SKC,0.00,VWS V14.01,2013-07-12 21:44:00,
2013-07-12 16:49:00,84.1,68.7,29.74,SSE,147,7.0,13.0,60,0.00,,SKC,0.00,VWS V14.01,2013-07-12 21:49:00,
2013-07-12 16:55:00,84.1,68.7,29.74,SE,130,1.0,13.0,60,0.00,,SKC,0.00,VWS V14.01,2013-07-12 21:55:00,
2013-07-12 17:00:00,84.1,68.2,29.74,SE,145,14.0,14.0,59,0.00,,SKC,0.00,VWS V14.01,2013-07-12 22:00:00,
2013-07-12 17:05:00,84.1,68.2,29.75,ESE,121,3.0,13.0,59,0.00,,SKC,0.00,VWS V14.01,2013-07-12 22:05:00,
2013-07-12 17:11:00,84.0,68.1,29.75,SE,139,10.0,16.0,59,0.00,,SKC,0.00,VWS V14.01,2013-07-12 22:11:00,
2013-07-12 17:16:00,83.9,68.1,29.74,SE,124,4.0,16.0,59,0.00,,SKC,0.00,VWS V14.01,2013-07-12 22:16:00,
2013-07-12 17:22:00,83.8,67.5,29.75,SE,124,9.0,19.0,58,0.00,,SKC,0.00,VWS V14.01,2013-07-12 22:22:00,
2013-07-12 17:27:00,83.8,68.0,29.75,SE,140,11.0,19.0,59,0.00,,SKC,0.00,VWS V14.01,2013-07-12 22:27:00,
2013-07-12 17:30:00,84.0,69.1,29.74,SE,138,3.0,20.0,61,0.00,,SKC,0.00,VWS V14.01,2013-07-12 22:30:00,
2013-07-12 17:33:00,83.6,67.8,29.74,SE,138,3.0,12.0,59,0.00,,SKC,0.00,VWS V14.01,2013-07-12 22:33:00,
2013-07-12 17:38:00,83.6,67.8,29.74,SE,144,1.0,12.0,59,0.00,,SKC,0.00,VWS V14.01,2013-07-12 22:38:00,
2013-07-12 17:43:00,83.5,68.2,29.74,SE,136,9.0,12.0,60,0.00,,SKC,0.00,VWS V14.01,2013-07-12 22:43:00,
2013-07-12 17:48:00,83.6,68.3,29.74,SE,136,1.0,13.0,60,0.00,,SKC,0.00,VWS V14.01,2013-07-12 22:48:00,
2013-07-12 17:53:00,83.6,68.3,29.74,SE,136,1.0,13.0,60,0.00,,SKC,0.00,VWS V14.01,2013-07-12 22:53:00,
2013-07-12 17:59:00,83.6,67.8,29.74,SE,129,5.0,13.0,59,0.00,,SKC,0.00,VWS V14.01,2013-07-12 22:59:00,
2013-07-12 18:00:00,84.1,68.2,29.74,SE,141,13.0,14.0,59,0.00,,SKC,0.00,VWS V14.01,2013-07-12 23:00:00,
2013-07-12 18:04:00,83.6,67.8,29.74,SE,128,5.0,11.0,59,0.00,,SKC,0.00,VWS V14.01,2013-07-12 23:04:00,
2013-07-12 18:09:00,83.7,68.3,29.74,SE,132,5.0,12.0,60,0.00,,SKC,0.00,VWS V14.01,2013-07-12 23:09:00,
2013-07-12 18:14:00,83.7,67.9,29.74,SE,132,8.0,12.0,59,0.00,,SKC,0.00,VWS V14.01,2013-07-12 23:14:00,
2013-07-12 18:21:00,83.6,68.3,29.73,SE,134,6.0,13.0,60,0.00,,SKC,0.00,VWS V14.01,2013-07-12 23:21:00,
2013-07-12 18:26:00,83.6,67.8,29.73,SE,130,0.0,13.0,59,0.00,,SKC,0.00,VWS V14.01,2013-07-12 23:26:00,
2013-07-12 18:30:00,83.7,67.9,29.74,ESE,110,8.0,19.0,59,0.00,,SKC,0.00,VWS V14.01,2013-07-12 23:30:00,
2013-07-12 18:31:00,83.5,67.7,29.73,SE,132,7.0,12.0,59,0.00,,SKC,0.00,VWS V14.01,2013-07-12 23:31:00,
2013-07-12 18:37:00,83.4,67.6,29.74,SE,137,8.0,16.0,59,0.00,,SKC,0.00,VWS V14.01,2013-07-12 23:37:00,
2013-07-12 18:42:00,83.3,67.5,29.73,SE,139,6.0,16.0,59,0.00,,SKC,0.00,VWS V14.01,2013-07-12 23:42:00,
2013-07-12 18:47:00,83.3,67.5,29.73,SE,138,4.0,16.0,59,0.00,,SKC,0.00,VWS V14.01,2013-07-12 23:47:00,
2013-07-12 18:54:00,83.1,66.8,29.73,ESE,122,6.0,20.0,58,0.00,,SKC,0.00,VWS V14.01,2013-07-12 23:54:00,
2013-07-12 19:00:00,82.9,67.1,29.73,SE,132,8.0,20.0,59,0.00,,SKC,0.00,VWS V14.01,2013-07-13 00:00:00,
2013-07-12 19:05:00,82.8,67.5,29.72,SE,136,4.0,11.0,60,0.00,,SKC,0.00,VWS V14.01,2013-07-13 00:05:00,
2013-07-12 19:10:00,82.6,67.3,29.73,SE,130,4.0,11.0,60,0.00,,SKC,0.00,VWS V14.01,2013-07-13 00:10:00,
2013-07-12 19:16:00,82.5,66.7,29.73,SE,132,11.0,13.0,59,0.00,,SKC,0.00,VWS V14.01,2013-07-13 00:16:00,
2013-07-12 19:21:00,82.4,67.1,29.72,SE,143,9.0,13.0,60,0.00,,SKC,0.00,VWS V14.01,2013-07-13 00:21:00,
2013-07-12 19:26:00,82.3,67.0,29.72,SE,144,5.0,14.0,60,0.00,,SKC,0.00,VWS V14.01,2013-07-13 00:26:00,
2013-07-12 19:30:00,83.5,67.7,29.73,SSE,156,6.0,13.0,59,0.00,,SKC,0.00,VWS V14.01,2013-07-13 00:30:00,
2013-07-12 19:31:00,82.2,67.4,29.72,SE,132,6.0,8.0,61,0.00,,SKC,0.00,VWS V14.01,2013-07-13 00:31:00,
2013-07-12 19:36:00,82.1,67.3,29.72,SE,134,4.0,12.0,61,0.00,,SKC,0.00,VWS V14.01,2013-07-13 00:36:00,
2013-07-12 19:42:00,81.9,67.1,29.72,SE,139,8.0,12.0,61,0.00,,SKC,0.00,VWS V14.01,2013-07-13 00:42:00,
2013-07-12 19:48:00,81.7,66.5,29.71,ESE,118,11.0,19.0,60,0.00,,SKC,0.00,VWS V14.01,2013-07-13 00:48:00,
2013-07-12 19:53:00,81.6,66.4,29.71,SE,140,3.0,19.0,60,0.00,,SKC,0.00,VWS V14.01,2013-07-13 00:53:00,
2013-07-12 19:58:00,81.5,66.3,29.71,SE,128,8.0,19.0,60,0.00,,SKC,0.00,VWS V14.01,2013-07-13 00:58:00,
2013-07-12 20:00:00,82.9,66.6,29.73,SE,126,7.0,20.0,58,0.00,,SKC,0.00,VWS V14.01,2013-07-13 01:00:00,
2013-07-12 20:03:00,81.4,66.7,29.71,SE,132,2.0,10.0,61,0.00,,SKC,0.00,VWS V14.01,2013-07-13 01:03:00,
2013-07-12 20:09:00,81.3,67.1,29.71,SE,140,8.0,13.0,62,0.00,,SKC,0.00,VWS V14.01,2013-07-13 01:09:00,
2013-07-12 20:14:00,81.1,66.4,29.71,SE,134,2.0,13.0,61,0.00,,SKC,0.00,VWS V14.01,2013-07-13 01:14:00,
2013-07-12 20:19:00,81.0,66.3,29.71,SE,132,4.0,14.0,61,0.00,,SKC,0.00,VWS V14.01,2013-07-13 01:19:00,
2013-07-12 20:24:00,80.8,65.6,29.71,ESE,117,5.0,16.0,60,0.00,,SKC,0.00,VWS V14.01,2013-07-13 01:24:00,
2013-07-12 20:30:00,80.7,65.5,29.71,SE,140,7.0,16.0,60,0.00,,SKC,0.00,VWS V14.01,2013-07-13 01:30:00,
2013-07-12 20:37:00,80.6,65.9,29.71,SE,137,2.0,13.0,61,0.00,,SKC,0.00,VWS V14.01,2013-07-13 01:37:00,
2013-07-12 20:42:00,80.5,65.3,29.71,SE,132,6.0,13.0,60,0.00,,SKC,0.00,VWS V14.01,2013-07-13 01:42:00,
2013-07-12 20:47:00,80.3,65.6,29.71,SSE,159,8.0,13.0,61,0.00,,SKC,0.00,VWS V14.01,2013-07-13 01:47:00,
2013-07-12 20:52:00,80.2,65.5,29.71,SE,142,7.0,13.0,61,0.00,,SKC,0.00,VWS V14.01,2013-07-13 01:52:00,
2013-07-12 20:57:00,80.0,65.8,29.71,SE,138,9.0,13.0,62,0.00,,SKC,0.00,VWS V14.01,2013-07-13 01:57:00,
2013-07-12 21:00:00,81.5,66.8,29.71,SE,130,5.0,19.0,61,0.00,,SKC,0.00,VWS V14.01,2013-07-13 02:00:00,
2013-07-12 21:02:00,79.9,65.7,29.71,SE,144,8.0,12.0,62,0.00,,SKC,0.00,VWS V14.01,2013-07-13 02:02:00,
2013-07-12 21:07:00,79.7,66.0,29.71,SE,138,8.0,14.0,63,0.00,,SKC,0.00,VWS V14.01,2013-07-13 02:07:00,
2013-07-12 21:12:00,79.6,65.9,29.71,SE,144,5.0,14.0,63,0.00,,SKC,0.00,VWS V14.01,2013-07-13 02:12:00,
2013-07-12 21:18:00,79.4,65.7,29.71,SSE,154,9.0,14.0,63,0.00,,SKC,0.00,VWS V14.01,2013-07-13 02:18:00,
2013-07-12 21:24:00,79.3,66.1,29.71,SE,136,10.0,14.0,64,0.00,,SKC,0.00,VWS V14.01,2013-07-13 02:24:00,
2013-07-12 21:30:00,79.2,65.5,29.71,SE,134,7.0,16.0,63,0.00,,SKC,0.00,VWS V14.01,2013-07-13 02:30:00,
2013-07-12 21:35:00,79.0,65.8,29.71,SE,143,6.0,13.0,64,0.00,,SKC,0.00,VWS V14.01,2013-07-13 02:35:00,
2013-07-12 21:40:00,78.9,65.7,29.70,SE,135,11.0,13.0,64,0.00,,SKC,0.00,VWS V14.01,2013-07-13 02:40:00,
2013-07-12 21:46:00,78.7,65.5,29.70,SE,126,8.0,13.0,64,0.00,,SKC,0.00,VWS V14.01,2013-07-13 02:46:00,
2013-07-12 21:51:00,78.7,65.1,29.70,SE,128,6.0,14.0,63,0.00,,SKC,0.00,VWS V14.01,2013-07-13 02:51:00,
2013-07-12 21:56:00,78.7,64.6,29.70,ESE,121,12.0,14.0,62,0.00,,SKC,0.00,VWS V14.01,2013-07-13 02:56:00,
2013-07-12 22:00:00,80.0,65.8,29.71,SE,136,5.0,14.0,62,0.00,,SKC,0.00,VWS V14.01,2013-07-13 03:00:00,
2013-07-12 22:01:00,78.6,65.4,29.71,SE,135,9.0,14.0,64,0.00,,SKC,0.00,VWS V14.01,2013-07-13 03:01:00,
2013-07-12 22:06:00,78.4,64.8,29.71,SSE,150,13.0,14.0,63,0.00,,SKC,0.00,VWS V14.01,2013-07-13 03:06:00,
2013-07-12 22:11:00,78.3,64.7,29.71,SSE,154,7.0,14.0,63,0.00,,SKC,0.00,VWS V14.01,2013-07-13 03:11:00,
2013-07-12 22:17:00,78.3,64.7,29.71,SE,129,4.0,20.0,63,0.00,,SKC,0.00,VWS V14.01,2013-07-13 03:17:00,
2013-07-12 22:22:00,78.2,64.6,29.72,SE,130,3.0,20.0,63,0.00,,SKC,0.00,VWS V14.01,2013-07-13 03:22:00,
2013-07-12 22:29:00,78.0,64.4,29.72,SE,132,5.0,20.0,63,0.00,,SKC,0.00,VWS V14.01,2013-07-13 03:29:00,
2013-07-12 22:30:00,79.1,65.9,29.71,SE,130,4.0,16.0,64,0.00,,SKC,0.00,VWS V14.01,2013-07-13 03:30:00,
2013-07-12 22:34:00,77.8,64.7,29.73,SE,141,1.0,8.0,64,0.00,,SKC,0.00,VWS V14.01,2013-07-13 03:34:00,
2013-07-12 22:39:00,77.7,64.6,29.73,SE,142,1.0,12.0,64,0.00,,SKC,0.00,VWS V14.01,2013-07-13 03:39:00,
2013-07-12 22:45:00,77.5,64.4,29.73,SE,142,4.0,12.0,64,0.00,,SKC,0.00,VWS V14.01,2013-07-13 03:45:00,
2013-07-12 22:51:00,77.4,64.3,29.74,SSE,148,0.0,12.0,64,0.00,,SKC,0.00,VWS V14.01,2013-07-13 03:51:00,
2013-07-12 22:56:00,77.3,63.7,29.74,SE,146,0.0,12.0,63,0.00,,SKC,0.00,VWS V14.01,2013-07-13 03:56:00,
2013-07-12 23:00:00,78.7,65.5,29.70,SE,134,6.0,14.0,64,0.00,,SKC,0.00,VWS V14.01,2013-07-13 04:00:00,
2013-07-12 23:01:00,77.1,64.0,29.73,ESE,115,1.0,6.0,64,0.00,,SKC,0.00,VWS V14.01,2013-07-13 04:01:00,
2013-07-12 23:02:00,77.1,64.0,29.73,ESE,115,0.0,6.0,64,0.00,,SKC,0.00,VWS V14.01,2013-07-13 04:02:00,
2013-07-12 23:03:00,77.1,64.4,29.74,ESE,111,0.0,6.0,65,0.00,,SKC,0.00,VWS V14.01,2013-07-13 04:03:00,
2013-07-12 23:08:00,76.9,63.8,29.74,ESE,112,0.0,7.0,64,0.00,,SKC,0.00,VWS V14.01,2013-07-13 04:08:00,
2013-07-12 23:13:00,76.8,64.6,29.74,SSE,149,0.0,9.0,66,0.00,,SKC,0.00,VWS V14.01,2013-07-13 04:13:00,
2013-07-12 23:14:00,76.8,64.6,29.74,SSE,149,0.0,9.0,66,0.00,,SKC,0.00,VWS V14.01,2013-07-13 04:14:00,
2013-07-12 23:19:00,76.6,64.4,29.74,SSE,149,1.0,9.0,66,0.00,,SKC,0.00,VWS V14.01,2013-07-13 04:19:00,
2013-07-12 23:24:00,76.5,64.7,29.74,SSE,155,0.0,9.0,67,0.00,,SKC,0.00,VWS V14.01,2013-07-13 04:24:00,
2013-07-12 23:29:00,76.3,63.7,29.75,SE,134,1.0,9.0,65,0.00,,SKC,0.00,VWS V14.01,2013-07-13 04:29:00,
2013-07-12 23:30:00,77.9,64.8,29.72,SE,133,5.0,20.0,64,0.00,,SKC,0.00,VWS V14.01,2013-07-13 04:30:00,
2013-07-12 23:34:00,76.2,64.0,29.75,SE,136,0.0,1.0,66,0.00,,SKC,0.00,VWS V14.01,2013-07-13 04:34:00,
2013-07-12 23:39:00,76.2,64.4,29.75,SE,136,0.0,4.0,67,0.00,,SKC,0.00,VWS V14.01,2013-07-13 04:39:00,
2013-07-12 23:44:00,76.1,64.4,29.75,SE,130,0.0,7.0,67,0.00,,SKC,0.00,VWS V14.01,2013-07-13 04:44:00,
2013-07-12 23:49:00,76.0,64.3,29.75,SE,130,8.0,8.0,67,0.00,,SKC,0.00,VWS V14.01,2013-07-13 04:49:00,
2013-07-12 23:54:00,76.0,64.3,29.75,South,183,4.0,10.0,67,0.00,,SKC,0.00,VWS V14.01,2013-07-13 04:54:00,
2013-07-12 23:59:00,76.0,64.3,29.75,SSE,148,7.0,10.0,67,0.00,,SKC,0.00,VWS V14.01,2013-07-13 04:59:00,